Content
SEND FEEDBACK

Daily
Averages
Monthly
Summary
United States of America

LIHUE, HAWAII


Home > North America > United States > Hawaii
Elevation: 103 feet     Latitude: 21 59N     Longitude: 159 21W

WEATHER
 
SELECT A DAY
Number of Records: 218,966;   Date Range: 1/1/95 - 7/7/14
 
SHARE

PRINT THIS DATA

[ ← Previous Day ]
WEATHER ALMANAC - MARCH 5, 2013
[ Next Day → ]
[ °C ]   °F
Weather ElementAverageHighLow
Temperature71.2 °F75.9 °F (12:53 pm)69.1 °F (1:53 am)
Dewpoint58.4 °F61 °F (4:53 pm)54 °F (4:53 am)
Humidity64.2 %73 % (6:08 pm)54 % (12:53 pm)
Barometer30.15 in30.20 in (8:53 am)30.10 in (3:53 pm)
Wind Speed13.9 mph19.6 mph (2:53 am)
Weather ElementAverage
Visibility10 mi
Wind DirectionENE (57.3 °)

Weather ElementTotal
Precipitation---
Cooling Degree Days7.5 (Base 65)
Growing Degree Days22.5 (Base 50)
Averaged from 30 records on March 5, 2013
WEATHER CONDITIONS BREAKOUT
WIND DIRECTION BREAKOUT
WEATHER BY HOUR - MARCH 5, 2013
[ °C ]   °F
Local TimeTemperatureDewpointHumidityBarometerVisibilityWind DirectionWind SpeedGust SpeedPrecipitationEventsConditions
1:49 AM69.8 °F57.2 °F64 %30.17 in10.0 miNE (50°)16.1 mphMostly Cloudy
1:53 AM69.1 °F57.9 °F68 %30.17 in10.0 miNE (50°)16.1 mphMostly Cloudy
2:53 AM69.1 °F55.9 °F63 %30.16 in10.0 miENE (70°)19.6 mphPartly Cloudy
3:53 AM69.1 °F55.9 °F63 %30.14 in10.0 miENE (60°)13.8 mphScattered Clouds
4:53 AM69.1 °F54.0 °F58 %30.14 in10.0 miENE (70°)17.3 mphOvercast
5:53 AM70.0 °F55.9 °F61 %30.15 in10.0 miENE (70°)19.6 mphOvercast
6:53 AM69.1 °F54.0 °F58 %30.16 in10.0 miENE (60°)11.5 mphMostly Cloudy
7:53 AM70.0 °F55.0 °F59 %30.18 in10.0 miENE (70°)17.3 mphMostly Cloudy
8:53 AM71.1 °F55.0 °F57 %30.20 in10.0 miEast (80°)12.7 mphOvercast
9:53 AM72.0 °F55.9 °F57 %30.19 in10.0 miEast (90°)12.7 mphOvercast
10:53 AM72.0 °F57.9 °F61 %30.19 in10.0 miNE (50°)12.7 mphMostly Cloudy
11:49 AM75.2 °F59.0 °F57 %30.17 in10.0 miNE (50°)11.5 mphMostly Cloudy
11:53 AM75.0 °F59.0 °F57 %30.17 in10.0 miENE (70°)12.7 mphMostly Cloudy
12:53 PM75.9 °F57.9 °F54 %30.15 in10.0 miNE (50°)10.4 mphScattered Clouds
1:53 PM75.9 °F60.1 °F58 %30.13 in10.0 miNE (50°)10.4 mphClear
2:53 PM75.0 °F60.1 °F60 %30.12 in10.0 miNE (50°)10.4 mphPartly Cloudy
3:53 PM73.9 °F60.1 °F62 %30.10 in10.0 miNE (40°)13.8 mphScattered Clouds
4:06 PM73.4 °F60.8 °F65 %30.10 in10.0 miNE (40°)11.5 mphMostly Cloudy
4:53 PM73.0 °F61.0 °F66 %30.11 in10.0 miNE (50°)12.7 mphOvercast
5:53 PM71.1 °F61.0 °F70 %30.12 in10.0 miNE (50°)15.0 mphMostly Cloudy
6:08 PM69.8 °F60.8 °F73 %30.13 in10.0 miNE (50°)16.1 mphOvercast
6:30 PM69.8 °F60.8 °F73 %30.13 in10.0 miNE (50°)15.0 mphMostly Cloudy
6:53 PM70.0 °F60.1 °F71 %30.14 in10.0 miNE (50°)15.0 mphPartly Cloudy
7:53 PM70.0 °F59.0 °F68 %30.15 in10.0 miENE (60°)12.7 mphMostly Cloudy
8:53 PM70.0 °F60.1 °F71 %30.17 in10.0 miNE (40°)12.7 mphMostly Cloudy
9:53 PM70.0 °F61.0 °F73 %30.17 in10.0 miNE (50°)15.0 mphMostly Cloudy
10:08 PM69.8 °F60.8 °F73 %30.18 in10.0 miENE (60°)12.7 mphMostly Cloudy
10:20 PM69.8 °F59.0 °F68 %30.18 in10.0 miENE (60°)12.7 mphOvercast
10:53 PM70.0 °F59.0 °F68 %30.17 in10.0 miENE (70°)15.0 mphMostly Cloudy
11:53 PM69.1 °F59.0 °F70 %30.17 in10.0 miENE (60°)12.7 mphScattered Clouds
Hourly data recorded from PHLI, located miles away from Lihue, Hawaii







STORIES FROM OUR PARTNERS